This is the latest recevied weather packets stored in our database for station/object KD8DNS. If no packets are shown the sender has not sent any weather packets the latest 10 day(s).
| Time | Temp. | Humidity | Pressure | Rain* | Wind** | Luminosity | Snow |
|---|---|---|---|---|---|---|---|
| 1788484844 | 27.78° C | 80% | 1018.8 hPa | 0 mm | - | 0 W/m² | - |
| 1788484543 | 27.78° C | 80% | 1018.7 hPa | 0 mm | - | 0 W/m² | - |
| 1788484258 | 27.78° C | 79% | 1018.8 hPa | 0 mm | - | 0 W/m² | - |
| 1788483935 | 27.78° C | 79% | 1018.5 hPa | 0 mm | - | 0 W/m² | - |
| 1788483631 | 27.78° C | 80% | 1018.7 hPa | 0 mm | - | 0 W/m² | - |
| 1788483331 | 28.33° C | 79% | 1018.6 hPa | 0 mm | - | 0 W/m² | - |
| 1788483027 | 28.33° C | 77% | 1018.6 hPa | 0 mm | - | 0 W/m² | - |
| 1788482722 | 28.89° C | 76% | 1018.5 hPa | 0 mm | - | 0 W/m² | - |
| 1788482423 | 28.89° C | 75% | 1018.5 hPa | 0 mm | - | 0 W/m² | - |
| 1788482118 | 28.89° C | 74% | 1018.5 hPa | 0 mm | - | 0 W/m² | - |
| 1788481814 | 29.44° C | 73% | 1018.2 hPa | 0 mm | - | 0 W/m² | - |
| 1788481510 | 29.44° C | 72% | 1018.2 hPa | 0 mm | - | 0 W/m² | - |
| 1788481209 | 30° C | 71% | 1018.2 hPa | 0 mm | - | 0 W/m² | - |
| 1788480905 | 30° C | 69% | 1018.5 hPa | 0 mm | - | 0 W/m² | - |
| 1788480599 | 30.56° C | 67% | 1018 hPa | 0 mm | - | 0 W/m² | - |
| 1788480298 | 30.56° C | 66% | 1018.4 hPa | 0 mm | - | 0 W/m² | - |
| 1788479994 | 31.11° C | 66% | 1018.3 hPa | 0 mm | - | 2 W/m² | - |
| 1788479690 | 31.11° C | 65% | 1018 hPa | 0 mm | - | 3 W/m² | - |
| 1788479389 | 31.67° C | 64% | 1018.1 hPa | 0 mm | - | 5 W/m² | - |
| 1788479085 | 31.67° C | 63% | 1018 hPa | 0 mm | - | 9 W/m² | - |
| 1788478781 | 32.22° C | 62% | 1018 hPa | 0 mm | - | 11 W/m² | - |
| 1788478477 | 32.22° C | 61% | 1018 hPa | 0 mm | - | 14 W/m² | - |
| 1788478174 | 32.78° C | 60% | 1017.8 hPa | 0 mm | - | 16 W/m² | - |
| 1788477866 | 32.78° C | 59% | 1018.1 hPa | 0 mm | - | 21 W/m² | - |
| 1788477561 | 33.33° C | 59% | 1018.2 hPa | 0 mm | - | 29 W/m² | - |
* Rain latest hour (hover to see other rain measurements)
** Current wind speed in m/s (hover to see current wind gust speed)